When you browse on this site, cookies collect data to enhance your experience and personalize the content and advertising you see.
Visit our Privacy Policy to learn more. By continuing to use the site, you agree to this use of cookies and data.
  • In Hungary
  • List of Countries
  • For 7 days
  • Water Temperature
  • Weather Map
  • News
  • Weather Widgets
  • user-avatar
    Login

    Hourly Weather Tuguluk

    Today, 21 October, Monday

    Time Temperature Precipitation Wind Pressure Humidity
    00:00 +13°C° 0 mm 5 mps 743 mmHg 56%
    01:00 +13°C° 0 mm 5 mps 743 mmHg 58%
    02:00 +12°C° 0 mm 5 mps 743 mmHg 59%
    03:00 +12°C° 0 mm 5 mps 743 mmHg 62%
    04:00 +10°C° 0 mm 5 mps 743 mmHg 64%
    05:00 +10°C° 0 mm 5 mps 743 mmHg 65%
    06:00 +10°C° 0 mm 5 mps 743 mmHg 67%
    07:00 +11°C° 0 mm 6 mps 744 mmHg 65%
    08:00 +13°C° 0 mm 6 mps 744 mmHg 63%
    09:00 +14°C° 0 mm 7 mps 744 mmHg 61%
    10:00 +15°C° 0 mm 7 mps 744 mmHg 57%
    11:00 +17°C° 0 mm 7 mps 744 mmHg 54%
    12:00 +18°C° 0 mm 7 mps 744 mmHg 50%
    13:00 +18°C° 0 mm 7 mps 743 mmHg 49%
    14:00 +18°C° 0 mm 7 mps 743 mmHg 49%
    15:00 +19°C° 0 mm 6 mps 743 mmHg 48%
    16:00 +17°C° 0 mm 6 mps 743 mmHg 51%
    17:00 +16°C° 0 mm 5 mps 743 mmHg 55%
    18:00 +14°C° 0 mm 4 mps 743 mmHg 58%
    19:00 +14°C° 0 mm 5 mps 743 mmHg 60%
    20:00 +13°C° 0 mm 5 mps 743 mmHg 61%
    21:00 +13°C° 0 mm 5 mps 743 mmHg 62%
    22:00 +12°C° 0 mm 5 mps 743 mmHg 65%
    23:00 +12°C° 0 mm 5 mps 742 mmHg 68%

    Tomorrow, 22 October, Tuesday

    Time Temperature Precipitation Wind Pressure Humidity
    00:00 +10°C° 0 mm 5 mps 742 mmHg 71%
    01:00 +10°C° 0 mm 5 mps 742 mmHg 74%
    02:00 +9°C° 0 mm 5 mps 742 mmHg 78%
    03:00 +10°C° 0 mm 4 mps 742 mmHg 81%
    04:00 +8°C° 0 mm 4 mps 742 mmHg 84%
    05:00 +8°C° 0 mm 4 mps 742 mmHg 87%
    06:00 +7°C° 0 mm 4 mps 742 mmHg 89%
    07:00 +10°C° 0 mm 4 mps 743 mmHg 83%
    08:00 +11°C° 0 mm 4 mps 743 mmHg 76%
    09:00 +12°C° 0 mm 5 mps 743 mmHg 70%
    10:00 +13°C° 0 mm 5 mps 743 mmHg 63%
    11:00 +15°C° 0 mm 5 mps 743 mmHg 56%
    12:00 +17°C° 0 mm 5 mps 743 mmHg 49%
    13:00 +17°C° 0 mm 5 mps 742 mmHg 47%
    14:00 +17°C° 0 mm 5 mps 742 mmHg 46%
    15:00 +19°C° 0 mm 4 mps 742 mmHg 45%
    16:00 +17°C° 0 mm 4 mps 742 mmHg 50%
    17:00 +16°C° 0 mm 3 mps 742 mmHg 54%
    18:00 +13°C° 0 mm 3 mps 742 mmHg 59%
    19:00 +13°C° 0 mm 3 mps 742 mmHg 61%
    20:00 +12°C° 0 mm 3 mps 742 mmHg 63%
    21:00 +12°C° 0 mm 3 mps 742 mmHg 64%
    22:00 +11°C° 0 mm 3 mps 742 mmHg 66%
    23:00 +11°C° 0 mm 3 mps 742 mmHg 67%

    Day after tomorrow, 23 October, Wednesday

    Time Temperature Precipitation Wind Pressure Humidity
    00:00 +10°C° 0 mm 3 mps 742 mmHg 68%
    01:00 +10°C° 0 mm 3 mps 742 mmHg 70%
    02:00 +10°C° 0 mm 3 mps 742 mmHg 72%
    03:00 +9°C° 0 mm 3 mps 742 mmHg 74%
    04:00 +9°C° 0 mm 2 mps 742 mmHg 76%
    05:00 +9°C° 0 mm 2 mps 742 mmHg 78%
    06:00 +8°C° 0 mm 2 mps 742 mmHg 80%
    07:00 +10°C° 0 mm 3 mps 742 mmHg 76%
    08:00 +11°C° 0 mm 3 mps 742 mmHg 71%
    09:00 +12°C° 0 mm 4 mps 743 mmHg 66%
    10:00 +14°C° 0 mm 4 mps 742 mmHg 58%
    11:00 +17°C° 0 mm 4 mps 742 mmHg 51%
    12:00 +18°C° 0 mm 4 mps 742 mmHg 43%
    13:00 +19°C° 0 mm 4 mps 742 mmHg 41%
    14:00 +19°C° 0 mm 4 mps 742 mmHg 38%
    15:00 +19°C° 0 mm 4 mps 741 mmHg 36%
    16:00 +18°C° 0 mm 4 mps 741 mmHg 39%
    17:00 +15°C° 0 mm 4 mps 741 mmHg 42%
    18:00 +13°C° 0 mm 3 mps 741 mmHg 45%
    19:00 +13°C° 0 mm 3 mps 742 mmHg 48%
    20:00 +12°C° 0 mm 3 mps 742 mmHg 50%
    21:00 +11°C° 0 mm 3 mps 742 mmHg 53%
    22:00 +11°C° 0 mm 3 mps 741 mmHg 55%
    23:00 +10°C° 0 mm 3 mps 741 mmHg 57%

    24 October, Thursday

    Time Temperature Precipitation Wind Pressure Humidity
    00:00 +10°C° 0 mm 3 mps 741 mmHg 59%
    01:00 +10°C° 0 mm 3 mps 741 mmHg 61%
    02:00 +9°C° 0 mm 3 mps 741 mmHg 63%
    03:00 +9°C° 0 mm 3 mps 741 mmHg 66%
    04:00 +8°C° 0 mm 3 mps 741 mmHg 68%
    05:00 +8°C° 0 mm 3 mps 741 mmHg 70%
    06:00 +8°C° 0 mm 3 mps 741 mmHg 72%
    07:00 +8°C° 0 mm 4 mps 741 mmHg 69%
    08:00 +10°C° 0 mm 4 mps 741 mmHg 66%
    09:00 +12°C° 0 mm 4 mps 741 mmHg 63%
    10:00 +13°C° 0 mm 5 mps 741 mmHg 56%
    11:00 +14°C° 0 mm 5 mps 741 mmHg 50%
    12:00 +16°C° 0 mm 5 mps 741 mmHg 44%
    13:00 +16°C° 0 mm 5 mps 741 mmHg 42%
    14:00 +17°C° 0 mm 5 mps 741 mmHg 39%
    15:00 +17°C° 0 mm 5 mps 740 mmHg 36%
    16:00 +16°C° 0 mm 5 mps 740 mmHg 43%
    17:00 +14°C° 0 mm 4 mps 740 mmHg 50%
    18:00 +13°C° 0 mm 4 mps 740 mmHg 56%
    19:00 +12°C° 0 mm 4 mps 740 mmHg 59%
    20:00 +11°C° 0 mm 4 mps 740 mmHg 61%
    21:00 +11°C° 0 mm 4 mps 740 mmHg 63%
    22:00 +11°C° 0 mm 4 mps 740 mmHg 66%
    23:00 +10°C° 0 mm 4 mps 740 mmHg 69%

    25 October, Friday

    Time Temperature Precipitation Wind Pressure Humidity
    00:00 +10°C° 0 mm 4 mps 740 mmHg 73%
    01:00 +8°C° 0 mm 4 mps 740 mmHg 77%
    02:00 +9°C° 0 mm 3 mps 740 mmHg 81%
    03:00 +9°C° 0 mm 3 mps 740 mmHg 86%
    04:00 +9°C° 0 mm 3 mps 740 mmHg 88%
    05:00 +8°C° 0 mm 3 mps 740 mmHg 89%
    06:00 +8°C° 0 mm 3 mps 740 mmHg 91%
    07:00 +9°C° 0 mm 3 mps 740 mmHg 85%
    08:00 +11°C° 0 mm 4 mps 740 mmHg 80%
    09:00 +12°C° 0 mm 4 mps 740 mmHg 74%
    10:00 +13°C° 0 mm 4 mps 740 mmHg 66%
    11:00 +15°C° 0 mm 4 mps 741 mmHg 58%
    12:00 +17°C° 0 mm 5 mps 741 mmHg 49%
    13:00 +17°C° 0 mm 5 mps 740 mmHg 48%
    14:00 +19°C° 0 mm 4 mps 740 mmHg 46%
    15:00 +19°C° 0 mm 4 mps 740 mmHg 45%
    16:00 +17°C° 0 mm 4 mps 740 mmHg 50%
    17:00 +15°C° 0 mm 4 mps 740 mmHg 55%
    18:00 +14°C° 0 mm 3 mps 740 mmHg 60%
    19:00 +13°C° 0 mm 3 mps 740 mmHg 61%
    20:00 +13°C° 0 mm 3 mps 740 mmHg 61%
    21:00 +12°C° 0 mm 3 mps 740 mmHg 62%
    22:00 +12°C° 0 mm 3 mps 740 mmHg 64%
    23:00 +11°C° 0 mm 3 mps 740 mmHg 65%

    26 October, Saturday

    Time Temperature Precipitation Wind Pressure Humidity
    00:00 +11°C° 0 mm 3 mps 740 mmHg 66%
    01:00 +11°C° 0 mm 3 mps 740 mmHg 69%
    02:00 +10°C° 0 mm 3 mps 740 mmHg 72%
    03:00 +10°C° 0 mm 3 mps 740 mmHg 74%
    04:00 +10°C° 0 mm 3 mps 741 mmHg 81%
    05:00 +10°C° 0 mm 3 mps 741 mmHg 88%
    06:00 +10°C° 0 mm 3 mps 741 mmHg 94%
    07:00 +11°C° 0 mm 3 mps 741 mmHg 89%
    08:00 +12°C° 0 mm 4 mps 741 mmHg 84%
    09:00 +14°C° 0 mm 4 mps 741 mmHg 79%
    10:00 +15°C° 0 mm 5 mps 741 mmHg 75%
    11:00 +16°C° 0 mm 5 mps 741 mmHg 72%
    12:00 +17°C° 0 mm 5 mps 741 mmHg 69%
    13:00 +17°C° 0 mm 5 mps 741 mmHg 67%
    14:00 +17°C° 0 mm 5 mps 741 mmHg 64%
    15:00 +19°C° 0 mm 5 mps 741 mmHg 62%
    16:00 +18°C° 0 mm 4 mps 741 mmHg 63%
    17:00 +17°C° 0 mm 4 mps 741 mmHg 65%
    18:00 +17°C° 0 mm 3 mps 741 mmHg 67%
    19:00 +16°C° 0 mm 3 mps 741 mmHg 70%
    20:00 +14°C° 0 mm 3 mps 741 mmHg 73%
    21:00 +13°C° 0 mm 3 mps 741 mmHg 75%
    22:00 +12°C° 0 mm 3 mps 741 mmHg 71%
    23:00 +12°C° 0 mm 3 mps 741 mmHg 67%

    27 October, Sunday

    Time Temperature Precipitation Wind Pressure Humidity
    00:00 +11°C° 0 mm 3 mps 741 mmHg 63%
    01:00 +11°C° 0 mm 3 mps 741 mmHg 63%
    02:00 +12°C° 0 mm 2 mps 741 mmHg 64%
    03:00 +10°C° 0 mm 2 mps 741 mmHg 64%
    04:00 +10°C° 0 mm 2 mps 741 mmHg 69%
    05:00 +10°C° 0 mm 2 mps 741 mmHg 73%
    06:00 +9°C° 0 mm 2 mps 741 mmHg 77%
    07:00 +11°C° 0 mm 3 mps 741 mmHg 73%
    08:00 +12°C° 0 mm 3 mps 742 mmHg 70%
    09:00 +13°C° 0 mm 4 mps 742 mmHg 67%
    10:00 +15°C° 0 mm 4 mps 742 mmHg 59%
    11:00 +17°C° 0 mm 4 mps 741 mmHg 52%
    12:00 +19°C° 0 mm 4 mps 741 mmHg 44%
    13:00 +19°C° 0 mm 5 mps 741 mmHg 44%
    14:00 +19°C° 0 mm 5 mps 741 mmHg 43%
    15:00 +20°C° 0 mm 5 mps 740 mmHg 43%
    16:00 +18°C° 0 mm 4 mps 740 mmHg 48%
    17:00 +17°C° 0 mm 3 mps 740 mmHg 53%
    18:00 +14°C° 0 mm 3 mps 740 mmHg 59%
    19:00 +14°C° 0 mm 3 mps 740 mmHg 59%
    20:00 +13°C° 0 mm 3 mps 740 mmHg 60%
    21:00 +12°C° 0 mm 3 mps 740 mmHg 61%
    22:00 +12°C° 0 mm 3 mps 739 mmHg 60%
    23:00 +11°C° 0 mm 3 mps 739 mmHg 59%
    Show more